Time,TemperatureF,DewpointF,PressureIn,WindDirection,WindDirectionDegrees,WindSpeedMPH,WindSpeedGustMPH,Humidity,HourlyPrecipIn,Conditions,Clouds,dailyrainin,SoftwareType,DateUTC
2013-02-10 00:01:00,23.0,14.0,30.32,North,0,0.0,2.0,69,0.00,,,0.05,,2013-02-10 05:01:00,
2013-02-10 00:11:00,23.0,14.0,30.32,North,0,0.0,2.0,69,0.00,,,0.05,,2013-02-10 05:11:00,
2013-02-10 00:22:00,23.0,15.0,30.32,North,0,0.0,1.0,70,0.00,,,0.05,,2013-02-10 05:22:00,
2013-02-10 00:32:00,22.0,14.0,30.32,North,0,0.0,0.0,70,0.00,,,0.05,,2013-02-10 05:32:00,
2013-02-10 00:41:00,22.0,14.0,30.32,North,0,0.0,0.0,70,0.00,,,0.05,,2013-02-10 05:41:00,
2013-02-10 00:52:00,22.0,14.0,30.33,North,0,0.0,0.0,70,0.00,,,0.05,,2013-02-10 05:52:00,
2013-02-10 01:02:00,22.0,14.0,30.33,North,0,0.0,1.0,71,0.00,,,0.05,,2013-02-10 06:02:00,
2013-02-10 01:11:00,22.0,14.0,30.33,North,0,0.0,1.0,71,0.00,,,0.05,,2013-02-10 06:11:00,
2013-02-10 01:21:00,21.0,13.0,30.33,North,0,0.0,1.0,71,0.00,,,0.05,,2013-02-10 06:21:00,
2013-02-10 01:32:00,21.0,13.0,30.33,North,0,0.0,3.0,72,0.00,,,0.05,,2013-02-10 06:32:00,
2013-02-10 01:42:00,21.0,13.0,30.33,North,0,0.0,3.0,72,0.00,,,0.05,,2013-02-10 06:42:00,
2013-02-10 01:52:00,21.0,13.0,30.34,North,0,0.0,2.0,72,0.00,,,0.05,,2013-02-10 06:52:00,
2013-02-10 02:01:00,21.0,13.0,30.35,North,0,0.0,2.0,72,0.00,,,0.05,,2013-02-10 07:01:00,
2013-02-10 02:11:00,21.0,13.0,30.35,North,0,0.0,2.0,72,0.00,,,0.05,,2013-02-10 07:11:00,
2013-02-10 02:21:00,21.0,13.0,30.35,North,0,0.0,0.0,72,0.00,,,0.05,,2013-02-10 07:21:00,
2013-02-10 02:31:00,20.0,13.0,30.35,North,0,0.0,0.0,73,0.00,,,0.05,,2013-02-10 07:31:00,
2013-02-10 02:42:00,20.0,13.0,30.35,North,0,0.0,0.0,73,0.00,,,0.05,,2013-02-10 07:42:00,
2013-02-10 02:52:00,20.0,13.0,30.36,North,0,0.0,1.0,73,0.00,,,0.05,,2013-02-10 07:52:00,
2013-02-10 03:01:00,20.0,13.0,30.36,North,0,0.0,0.0,73,0.00,,,0.05,,2013-02-10 08:01:00,
2013-02-10 03:11:00,20.0,13.0,30.36,North,0,0.0,0.0,73,0.00,,,0.05,,2013-02-10 08:11:00,
2013-02-10 03:21:00,19.0,12.0,30.36,North,0,0.0,0.0,74,0.00,,,0.05,,2013-02-10 08:21:00,
2013-02-10 03:32:00,19.0,12.0,30.35,North,0,0.0,3.0,74,0.00,,,0.05,,2013-02-10 08:32:00,
2013-02-10 03:43:00,19.0,12.0,30.35,North,0,0.0,3.0,74,0.00,,,0.05,,2013-02-10 08:43:00,
2013-02-10 03:52:00,19.0,12.0,30.34,North,0,0.0,2.0,75,0.00,,,0.05,,2013-02-10 08:52:00,
2013-02-10 04:02:00,19.0,12.0,30.34,North,0,0.0,0.0,75,0.00,,,0.05,,2013-02-10 09:02:00,
2013-02-10 04:11:00,19.0,12.0,30.34,North,0,0.0,0.0,75,0.00,,,0.05,,2013-02-10 09:11:00,
2013-02-10 04:21:00,19.0,12.0,30.34,North,0,0.0,0.0,74,0.00,,,0.05,,2013-02-10 09:21:00,
2013-02-10 04:32:00,19.0,12.0,30.34,North,0,0.0,0.0,74,0.00,,,0.05,,2013-02-10 09:32:00,
2013-02-10 04:42:00,19.0,12.0,30.34,North,0,0.0,0.0,74,0.00,,,0.05,,2013-02-10 09:42:00,
2013-02-10 04:52:00,18.0,11.0,30.34,North,0,0.0,0.0,74,0.00,,,0.05,,2013-02-10 09:52:00,
2013-02-10 05:01:00,18.0,11.0,30.35,North,0,0.0,0.0,75,0.00,,,0.05,,2013-02-10 10:01:00,
2013-02-10 05:11:00,18.0,11.0,30.35,North,0,0.0,1.0,75,0.00,,,0.05,,2013-02-10 10:11:00,
2013-02-10 05:21:00,18.0,11.0,30.35,North,0,0.0,1.0,75,0.00,,,0.05,,2013-02-10 10:21:00,
2013-02-10 05:31:00,18.0,11.0,30.35,North,0,0.0,0.0,75,0.00,,,0.05,,2013-02-10 10:31:00,
2013-02-10 05:42:00,18.0,11.0,30.35,North,0,0.0,0.0,75,0.00,,,0.05,,2013-02-10 10:42:00,
2013-02-10 05:52:00,17.0,11.0,30.35,North,0,0.0,0.0,76,0.00,,,0.05,,2013-02-10 10:52:00,
2013-02-10 06:01:00,17.0,11.0,30.36,North,0,0.0,0.0,76,0.00,,,0.05,,2013-02-10 11:01:00,
2013-02-10 06:11:00,17.0,11.0,30.36,North,0,0.0,0.0,76,0.00,,,0.05,,2013-02-10 11:11:00,
2013-02-10 06:22:00,17.0,11.0,30.35,North,0,0.0,0.0,77,0.00,,,0.05,,2013-02-10 11:22:00,
2013-02-10 06:32:00,17.0,11.0,30.36,North,0,0.0,0.0,77,0.00,,,0.05,,2013-02-10 11:32:00,
2013-02-10 06:42:00,17.0,11.0,30.36,North,0,0.0,0.0,77,0.00,,,0.05,,2013-02-10 11:42:00,
2013-02-10 06:52:00,17.0,11.0,30.37,North,0,0.0,0.0,78,0.00,,,0.05,,2013-02-10 11:52:00,
2013-02-10 07:02:00,17.0,11.0,30.37,North,0,0.0,0.0,78,0.00,,,0.05,,2013-02-10 12:02:00,
2013-02-10 07:12:00,17.0,11.0,30.37,North,0,0.0,0.0,78,0.00,,,0.05,,2013-02-10 12:12:00,
2013-02-10 07:21:00,17.0,12.0,30.38,North,0,0.0,0.0,79,0.00,,,0.05,,2013-02-10 12:21:00,
2013-02-10 07:32:00,16.0,10.0,30.38,North,0,0.0,0.0,78,0.00,,,0.05,,2013-02-10 12:32:00,
2013-02-10 07:42:00,16.0,10.0,30.38,North,0,0.0,0.0,78,0.00,,,0.05,,2013-02-10 12:42:00,
2013-02-10 07:52:00,16.0,11.0,30.39,North,0,0.0,0.0,79,0.00,,,0.05,,2013-02-10 12:52:00,
2013-02-10 08:02:00,16.0,11.0,30.39,North,0,0.0,1.0,79,0.00,,,0.05,,2013-02-10 13:02:00,
2013-02-10 08:11:00,16.0,11.0,30.39,North,0,0.0,1.0,79,0.00,,,0.05,,2013-02-10 13:11:00,
2013-02-10 08:21:00,16.0,11.0,30.40,North,0,0.0,2.0,80,0.00,,,0.05,,2013-02-10 13:21:00,
2013-02-10 08:31:00,17.0,12.0,30.41,North,0,0.0,1.0,80,0.00,,,0.05,,2013-02-10 13:31:00,
2013-02-10 08:41:00,17.0,12.0,30.41,North,0,0.0,1.0,80,0.00,,,0.05,,2013-02-10 13:41:00,
2013-02-10 08:52:00,20.0,14.0,30.41,North,0,0.0,3.0,77,0.00,,,0.05,,2013-02-10 13:52:00,
2013-02-10 09:02:00,23.0,15.0,30.42,North,0,0.0,1.0,72,0.00,,,0.05,,2013-02-10 14:02:00,
2013-02-10 09:11:00,23.0,15.0,30.42,North,0,0.0,1.0,72,0.00,,,0.05,,2013-02-10 14:11:00,
2013-02-10 09:21:00,24.0,15.0,30.42,North,0,0.0,2.0,68,0.00,,,0.05,,2013-02-10 14:21:00,
2013-02-10 09:32:00,26.0,16.0,30.42,North,0,0.0,0.0,64,0.00,,,0.05,,2013-02-10 14:32:00,
2013-02-10 09:41:00,26.0,16.0,30.42,North,0,0.0,0.0,64,0.00,,,0.05,,2013-02-10 14:41:00,
2013-02-10 09:52:00,28.0,17.0,30.42,North,0,0.0,0.0,62,0.00,,,0.05,,2013-02-10 14:52:00,
2013-02-10 10:02:00,28.0,16.0,30.43,North,0,0.0,2.0,59,0.00,,,0.05,,2013-02-10 15:02:00,
2013-02-10 10:11:00,28.0,16.0,30.43,North,0,0.0,2.0,59,0.00,,,0.05,,2013-02-10 15:11:00,
2013-02-10 10:22:00,29.0,17.0,30.42,North,0,0.0,2.0,60,0.00,,,0.05,,2013-02-10 15:22:00,
2013-02-10 10:32:00,29.0,15.0,30.42,North,0,0.0,3.0,56,0.00,,,0.05,,2013-02-10 15:32:00,
2013-02-10 10:42:00,29.0,15.0,30.42,North,0,0.0,3.0,56,0.00,,,0.05,,2013-02-10 15:42:00,
2013-02-10 10:52:00,30.0,16.0,30.42,North,0,0.0,2.0,56,0.00,,,0.05,,2013-02-10 15:52:00,
2013-02-10 11:02:00,31.0,15.0,30.42,North,0,0.0,2.0,51,0.00,,,0.05,,2013-02-10 16:02:00,
2013-02-10 11:12:00,31.0,15.0,30.41,North,0,0.0,2.0,51,0.00,,,0.05,,2013-02-10 16:12:00,
2013-02-10 11:22:00,31.0,15.0,30.41,North,0,0.0,2.0,51,0.00,,,0.05,,2013-02-10 16:22:00,
2013-02-10 11:32:00,33.0,18.0,30.40,North,0,0.0,1.0,53,0.00,,,0.05,,2013-02-10 16:32:00,
2013-02-10 11:42:00,33.0,16.0,30.39,North,0,0.0,3.0,49,0.00,,,0.05,,2013-02-10 16:42:00,
2013-02-10 11:52:00,33.0,16.0,30.39,North,0,0.0,3.0,49,0.00,,,0.05,,2013-02-10 16:52:00,
2013-02-10 12:02:00,34.0,17.0,30.38,North,0,0.0,3.0,49,0.00,,,0.05,,2013-02-10 17:02:00,
2013-02-10 12:11:00,34.0,17.0,30.38,North,0,0.0,3.0,49,0.00,,,0.05,,2013-02-10 17:11:00,
2013-02-10 12:22:00,35.0,17.0,30.37,North,0,0.0,4.0,47,0.00,,,0.04,,2013-02-10 17:22:00,
2013-02-10 12:32:00,36.0,18.0,30.36,North,0,0.0,5.0,47,0.00,,,0.03,,2013-02-10 17:32:00,
2013-02-10 12:42:00,36.0,16.0,30.36,North,0,0.0,7.0,43,0.00,,,0.03,,2013-02-10 17:42:00,
2013-02-10 12:52:00,36.0,16.0,30.36,North,0,0.0,7.0,43,0.00,,,0.03,,2013-02-10 17:52:00,
2013-02-10 13:02:00,36.0,15.0,30.35,North,0,0.0,2.0,41,0.00,,,0.02,,2013-02-10 18:02:00,
2013-02-10 13:12:00,37.0,17.0,30.36,North,0,0.0,4.0,44,0.00,,,0.02,,2013-02-10 18:12:00,
2013-02-10 13:22:00,37.0,17.0,30.36,North,0,0.0,4.0,44,0.00,,,0.02,,2013-02-10 18:22:00,
2013-02-10 13:32:00,38.0,19.0,30.35,North,0,0.0,5.0,45,0.00,,,0.02,,2013-02-10 18:32:00,
2013-02-10 13:42:00,38.0,19.0,30.35,North,0,0.0,5.0,45,0.00,,,0.02,,2013-02-10 18:42:00,
2013-02-10 13:52:00,38.0,19.0,30.35,North,0,0.0,7.0,45,0.00,,,0.01,,2013-02-10 18:52:00,
2013-02-10 14:02:00,39.0,17.0,30.34,West,274,1.0,6.0,41,0.00,,,0.01,,2013-02-10 19:02:00,
2013-02-10 14:12:00,40.0,18.0,30.34,North,0,0.0,5.0,41,0.00,,,0.01,,2013-02-10 19:12:00,
2013-02-10 14:22:00,40.0,18.0,30.34,North,0,0.0,5.0,41,0.00,,,0.01,,2013-02-10 19:22:00,
2013-02-10 14:32:00,40.0,19.0,30.33,West,271,1.0,6.0,43,0.00,,,0.01,,2013-02-10 19:32:00,
2013-02-10 14:42:00,39.0,18.0,30.32,North,0,0.0,7.0,42,0.00,,,0.01,,2013-02-10 19:42:00,
2013-02-10 14:52:00,39.0,18.0,30.32,North,0,0.0,7.0,42,0.00,,,0.01,,2013-02-10 19:52:00,
2013-02-10 15:02:00,40.0,18.0,30.32,NW,313,1.0,9.0,40,0.00,,,0.00,,2013-02-10 20:02:00,
2013-02-10 15:11:00,40.0,18.0,30.32,NW,313,1.0,9.0,40,0.00,,,0.00,,2013-02-10 20:11:00,
2013-02-10 15:22:00,40.0,18.0,30.32,NW,313,2.0,5.0,40,0.00,,,0.00,,2013-02-10 20:22:00,
2013-02-10 15:32:00,40.0,19.0,30.32,West,267,1.0,5.0,42,0.00,,,0.00,,2013-02-10 20:32:00,
2013-02-10 15:42:00,40.0,19.0,30.30,North,0,0.0,4.0,43,0.00,,,0.00,,2013-02-10 20:42:00,
2013-02-10 15:52:00,40.0,19.0,30.30,North,0,0.0,4.0,43,0.00,,,0.00,,2013-02-10 20:52:00,
2013-02-10 16:02:00,40.0,18.0,30.29,North,0,0.0,5.0,41,0.00,,,0.00,,2013-02-10 21:02:00,
2013-02-10 16:11:00,40.0,18.0,30.30,West,280,1.0,6.0,40,0.00,,,0.00,,2013-02-10 21:11:00,
2013-02-10 16:22:00,40.0,18.0,30.30,West,280,1.0,6.0,40,0.00,,,0.00,,2013-02-10 21:22:00,
2013-02-10 16:32:00,39.0,18.0,30.29,North,0,0.0,4.0,42,0.00,,,0.00,,2013-02-10 21:32:00,
2013-02-10 16:42:00,39.0,18.0,30.30,North,0,0.0,4.0,43,0.00,,,0.00,,2013-02-10 21:42:00,
2013-02-10 16:52:00,39.0,18.0,30.30,North,0,0.0,4.0,43,0.00,,,0.00,,2013-02-10 21:52:00,
2013-02-10 17:02:00,38.0,17.0,30.30,West,267,2.0,7.0,42,0.00,,,0.00,,2013-02-10 22:02:00,
2013-02-10 17:11:00,38.0,19.0,30.30,West,268,1.0,6.0,45,0.00,,,0.00,,2013-02-10 22:11:00,
2013-02-10 17:22:00,38.0,19.0,30.30,West,268,1.0,6.0,45,0.00,,,0.00,,2013-02-10 22:22:00,
2013-02-10 17:32:00,37.0,18.0,30.30,North,0,0.0,2.0,46,0.00,,,0.00,,2013-02-10 22:32:00,
2013-02-10 17:42:00,37.0,19.0,30.30,North,0,0.0,3.0,47,0.00,,,0.00,,2013-02-10 22:42:00,
2013-02-10 17:53:00,37.0,19.0,30.30,North,0,0.0,3.0,47,0.00,,,0.00,,2013-02-10 22:53:00,
2013-02-10 18:02:00,36.0,18.0,30.31,North,0,0.0,2.0,47,0.00,,,0.00,,2013-02-10 23:02:00,
2013-02-10 18:11:00,36.0,18.0,30.31,North,0,0.0,2.0,47,0.00,,,0.00,,2013-02-10 23:11:00,
2013-02-10 18:22:00,35.0,17.0,30.31,North,0,0.0,2.0,48,0.00,,,0.00,,2013-02-10 23:22:00,
2013-02-10 18:32:00,35.0,18.0,30.30,North,0,0.0,5.0,49,0.00,,,0.00,,2013-02-10 23:32:00,
2013-02-10 18:42:00,35.0,20.0,30.29,West,269,2.0,6.0,53,0.00,,,0.00,,2013-02-10 23:42:00,
2013-02-10 18:52:00,35.0,20.0,30.29,West,269,2.0,6.0,53,0.00,,,0.00,,2013-02-10 23:52:00,
2013-02-10 19:02:00,34.0,20.0,30.29,North,0,0.0,1.0,55,0.00,,,0.00,,2013-02-11 00:02:00,
2013-02-10 19:11:00,34.0,20.0,30.29,North,0,0.0,4.0,56,0.00,,,0.00,,2013-02-11 00:11:00,
2013-02-10 19:22:00,34.0,20.0,30.29,North,0,0.0,4.0,56,0.00,,,0.00,,2013-02-11 00:22:00,
2013-02-10 19:32:00,34.0,20.0,30.29,North,0,0.0,4.0,57,0.00,,,0.00,,2013-02-11 00:32:00,
2013-02-10 19:42:00,34.0,20.0,30.29,North,0,0.0,3.0,57,0.00,,,0.00,,2013-02-11 00:42:00,
2013-02-10 19:52:00,34.0,20.0,30.29,North,0,0.0,3.0,57,0.00,,,0.00,,2013-02-11 00:52:00,
2013-02-10 20:01:00,33.0,19.0,30.29,North,0,0.0,3.0,57,0.00,,,0.00,,2013-02-11 01:01:00,
2013-02-10 20:11:00,33.0,19.0,30.29,North,0,0.0,3.0,57,0.00,,,0.00,,2013-02-11 01:11:00,
2013-02-10 20:21:00,33.0,20.0,30.29,North,0,0.0,3.0,58,0.00,,,0.00,,2013-02-11 01:21:00,
2013-02-10 20:32:00,33.0,21.0,30.29,North,0,0.0,5.0,60,0.00,,,0.00,,2013-02-11 01:32:00,
2013-02-10 20:42:00,33.0,21.0,30.28,North,0,0.0,3.0,62,0.00,,,0.00,,2013-02-11 01:42:00,
2013-02-10 20:52:00,33.0,21.0,30.28,North,0,0.0,3.0,62,0.00,,,0.00,,2013-02-11 01:52:00,
2013-02-10 21:01:00,33.0,22.0,30.29,North,0,0.0,4.0,64,0.00,,,0.00,,2013-02-11 02:01:00,
2013-02-10 21:11:00,33.0,22.0,30.29,North,0,0.0,4.0,64,0.00,,,0.00,,2013-02-11 02:11:00,
2013-02-10 21:21:00,32.0,22.0,30.29,North,0,0.0,3.0,66,0.00,,,0.00,,2013-02-11 02:21:00,
2013-02-10 21:32:00,32.0,23.0,30.29,North,0,0.0,4.0,69,0.00,,,0.00,,2013-02-11 02:32:00,
2013-02-10 21:42:00,32.0,24.0,30.28,North,0,0.0,4.0,72,0.00,,,0.00,,2013-02-11 02:42:00,
2013-02-10 21:52:00,32.0,24.0,30.28,North,0,0.0,4.0,72,0.00,,,0.00,,2013-02-11 02:52:00,
2013-02-10 22:02:00,32.0,25.0,30.27,North,0,0.0,5.0,75,0.00,,,0.00,,2013-02-11 03:02:00,
2013-02-10 22:11:00,31.0,25.0,30.25,North,0,0.0,5.0,78,0.00,,,0.00,,2013-02-11 03:11:00,
2013-02-10 22:21:00,31.0,25.0,30.25,North,0,0.0,5.0,78,0.00,,,0.00,,2013-02-11 03:21:00,
2013-02-10 22:32:00,31.0,26.0,30.24,North,0,0.0,4.0,80,0.00,,,0.00,,2013-02-11 03:32:00,
2013-02-10 22:42:00,31.0,26.0,30.24,WSW,239,1.0,5.0,82,0.00,,,0.00,,2013-02-11 03:42:00,
2013-02-10 22:52:00,31.0,26.0,30.24,WSW,239,1.0,5.0,82,0.00,,,0.00,,2013-02-11 03:52:00,
2013-02-10 23:01:00,31.0,26.0,30.24,North,0,0.0,2.0,83,0.00,,,0.00,,2013-02-11 04:01:00,
2013-02-10 23:11:00,31.0,26.0,30.24,North,0,0.0,2.0,83,0.00,,,0.00,,2013-02-11 04:11:00,
2013-02-10 23:21:00,31.0,26.0,30.24,WSW,242,1.0,4.0,83,0.00,,,0.00,,2013-02-11 04:21:00,
2013-02-10 23:32:00,31.0,27.0,30.25,North,0,0.0,3.0,85,0.00,,,0.00,,2013-02-11 04:32:00,
2013-02-10 23:42:00,31.0,27.0,30.25,North,0,0.0,2.0,85,0.00,,,0.00,,2013-02-11 04:42:00,
2013-02-10 23:51:00,31.0,27.0,30.25,North,0,0.0,2.0,85,0.00,,,0.00,,2013-02-11 04:51:00,